{"data":{"norad_id":54643,"intl_designator":"2022-166B","name":"ONEWEB-0528","alt_names":[],"object_type":"PAYLOAD","status":"ACTIVE","operator":null,"country":"UK","launch_date":"2022-12-08","launch_site_code":"AFETR","launch_vehicle":null,"mission":null,"orbit_class":"UNKNOWN","rcs_meters":null,"size_class":null,"mass_kg":null,"dimensions":null,"purposes":["comms"],"wikipedia_slug":null,"has_3d_model":false,"image_url":null,"decayed_at":null,"tle_current":{"epoch":"2026-05-25T00:19:29.438688Z","epoch_age_seconds":73541,"freshness":"FRESH","line1":"1 54643U 22166B   26145.01353517 -.00000020  00000+0 -78870-4 0  9999","line2":"2 54643  87.9253 248.6101 0001762  97.4058 262.7276 13.21826107168489","mean_motion":13.21826107,"eccentricity":0.0001762,"inclination_deg":87.9253,"raan_deg":248.6101,"arg_perigee_deg":97.4058,"mean_anomaly_deg":262.7276,"bstar":-7.887e-5,"rev_number":16848,"period_min":108.94019965063,"perigee_km":1176.4216127975,"apogee_km":1179.0843084197,"semimajor_km":7555.8899606086,"source":"CELESTRAK","updated_at":"2026-05-25T13:38:22.624939Z"}}}